Heubes-Wetterstation in 44289 Dortmund
Heubes-Wetterstation

Messwerte der letzten 60 Minuten im Minuten-Intervall (Wetterstation 44289 Dortmund)

Datum & Uhrzeit Temp. Feucht. Wind-Ø Böen Sekt.  Regen Rate Luftdruck
21.10.2019 - 19:3612.1 °C80.3%0 km/h 0 km/h S-SW0.0 mm 0.0 mm 1020.2 hPa, gleichbleibend
21.10.2019 - 19:3512.1 °C80%0 km/h 0 km/h S-SW0.0 mm 0.0 mm 1020.2 hPa, gleichbleibend
21.10.2019 - 19:3412.2 °C80%0 km/h 0 km/h S-SW0.0 mm 0.0 mm 1020.2 hPa, langsam steigend
21.10.2019 - 19:3312.2 °C80%0 km/h 0 km/h S-SW0.0 mm 0.0 mm 1020.1 hPa, langsam steigend
21.10.2019 - 19:3212.2 °C80%0 km/h 0 km/h S-SW0.0 mm 0.0 mm 1020.0 hPa, gleichbleibend
21.10.2019 - 19:3112.3 °C80%0 km/h 0 km/h S-SW0.0 mm 0.0 mm 1020.0 hPa, gleichbleibend
21.10.2019 - 19:3012.3 °C80%0 km/h 0 km/h S-SW0.0 mm 0.0 mm 1020.0 hPa, gleichbleibend
21.10.2019 - 19:2912.3 °C80%0 km/h 0 km/h S-SW0.0 mm 0.0 mm 1020.0 hPa, gleichbleibend
21.10.2019 - 19:2812.3 °C80%0 km/h 0 km/h S-SW0.0 mm 0.0 mm 1020.0 hPa, gleichbleibend
21.10.2019 - 19:2712.4 °C80%0 km/h 0 km/h S-SW0.0 mm 0.0 mm 1020.0 hPa, gleichbleibend
21.10.2019 - 19:2612.4 °C80%0 km/h 0 km/h S-SW0.0 mm 0.0 mm 1020.0 hPa, gleichbleibend
21.10.2019 - 19:2512.4 °C79%0 km/h 0 km/h S-SW0.0 mm 0.0 mm 1020.0 hPa, gleichbleibend
21.10.2019 - 19:2412.5 °C79%0 km/h 0 km/h S-SW0.0 mm 0.0 mm 1020.0 hPa, gleichbleibend
21.10.2019 - 19:2312.6 °C79%0 km/h 0 km/h S-SW0.0 mm 0.0 mm 1020.0 hPa, langsam steigend
21.10.2019 - 19:2212.6 °C79%0 km/h 0 km/h S-SW0.0 mm 0.0 mm 1019.9 hPa, gleichbleibend
21.10.2019 - 19:2112.7 °C79%0 km/h 0 km/h S-SW0.0 mm 0.0 mm 1019.9 hPa, gleichbleibend
21.10.2019 - 19:2012.7 °C79%0 km/h 0 km/h S-SW0.0 mm 0.0 mm 1019.9 hPa, gleichbleibend
21.10.2019 - 19:1912.7 °C79%0 km/h 0 km/h S-SW0.0 mm 0.0 mm 1019.9 hPa, gleichbleibend
21.10.2019 - 19:1812.7 °C79%0 km/h 0 km/h S-SW0.0 mm 0.0 mm 1019.9 hPa, gleichbleibend
21.10.2019 - 19:1712.8 °C79%0 km/h 0 km/h S-SW0.0 mm 0.0 mm 1019.9 hPa, gleichbleibend
21.10.2019 - 19:1612.8 °C79%0 km/h 0 km/h S-SW0.0 mm 0.0 mm 1019.9 hPa, gleichbleibend
21.10.2019 - 19:1512.8 °C79%0 km/h 0 km/h S-SW0.0 mm 0.0 mm 1019.9 hPa, gleichbleibend
21.10.2019 - 19:1412.8 °C79%0 km/h 0 km/h S-SW0.0 mm 0.0 mm 1019.9 hPa, gleichbleibend
21.10.2019 - 19:1312.8 °C79%0 km/h 0 km/h S-SW0.0 mm 0.0 mm 1019.9 hPa, langsam steigend
21.10.2019 - 19:1212.9 °C79%0 km/h 0 km/h S-SW0.0 mm 0.0 mm 1019.8 hPa, gleichbleibend
21.10.2019 - 19:1112.9 °C78.5%0 km/h 0 km/h S-SW0.0 mm 0.0 mm 1019.8 hPa, gleichbleibend
21.10.2019 - 19:1012.9 °C78%0 km/h 0 km/h S-SW0.0 mm 0.0 mm 1019.7 hPa, gleichbleibend
21.10.2019 - 19:0912.9 °C78%0 km/h 0 km/h S-SW0.0 mm 0.0 mm 1019.7 hPa, gleichbleibend
21.10.2019 - 19:0812.9 °C78%0 km/h 0 km/h S-SW0.0 mm 0.0 mm 1019.7 hPa, gleichbleibend
21.10.2019 - 19:0713.0 °C78%0 km/h 0 km/h S-SW0.0 mm 0.0 mm 1019.7 hPa, gleichbleibend
21.10.2019 - 19:0613.0 °C78%0 km/h 0 km/h S-SW0.0 mm 0.0 mm 1019.7 hPa, gleichbleibend
21.10.2019 - 19:0513.1 °C78%0 km/h 0 km/h S-SW0.0 mm 0.0 mm 1019.7 hPa, gleichbleibend
21.10.2019 - 19:0413.1 °C78%0 km/h 0 km/h S-SW0.0 mm 0.0 mm 1019.7 hPa, gleichbleibend
21.10.2019 - 19:0313.1 °C78%1 km/h 0 km/h S-SW0.0 mm 0.0 mm 1019.7 hPa, gleichbleibend
21.10.2019 - 19:0213.1 °C78%1 km/h 0 km/h S-SW0.0 mm 0.0 mm 1019.7 hPa, langsam steigend
21.10.2019 - 19:0113.1 °C78%1 km/h 0 km/h S-SW0.0 mm 0.0 mm 1019.6 hPa, gleichbleibend
21.10.2019 - 19:0013.2 °C78%1 km/h 0 km/h S-SW0.0 mm 0.0 mm 1019.6 hPa, gleichbleibend
21.10.2019 - 18:5913.2 °C78%1 km/h 7 km/h S-SW0.0 mm 0.0 mm 1019.6 hPa, langsam fallend
21.10.2019 - 18:5813.2 °C78%1 km/h 8 km/h SW0.0 mm 0.0 mm 1019.7 hPa, langsam steigend
21.10.2019 - 18:5713.2 °C78%1 km/h 7 km/h S0.0 mm 0.0 mm 1019.6 hPa, langsam fallend
21.10.2019 - 18:5613.2 °C78%1 km/h 5 km/h SW0.0 mm 0.0 mm 1019.7 hPa, gleichbleibend
21.10.2019 - 18:5513.2 °C78%1 km/h 7 km/h S-SW0.0 mm 0.0 mm 1019.7 hPa, gleichbleibend
21.10.2019 - 18:5413.2 °C78%1 km/h 5 km/h S-SW0.0 mm 0.0 mm 1019.7 hPa, langsam steigend
21.10.2019 - 18:5313.2 °C78%1 km/h 8 km/h SW0.0 mm 0.0 mm 1019.6 hPa, gleichbleibend
21.10.2019 - 18:5213.3 °C78%1 km/h 0 km/h S-SW0.0 mm 0.0 mm 1019.6 hPa, gleichbleibend
21.10.2019 - 18:5113.3 °C77%1 km/h 8 km/h S-SW0.0 mm 0.0 mm 1019.6 hPa, langsam fallend
21.10.2019 - 18:5013.3 °C77%1 km/h 0 km/h S-SW0.0 mm 0.0 mm 1019.7 hPa, langsam steigend
21.10.2019 - 18:4913.3 °C77%1 km/h 3 km/h W-SW0.0 mm 0.0 mm 1019.6 hPa, gleichbleibend
21.10.2019 - 18:4813.4 °C77%1 km/h 14 km/h S-SW0.0 mm 0.0 mm 1019.6 hPa, gleichbleibend
21.10.2019 - 18:4713.4 °C77%1 km/h 13 km/h SW0.0 mm 0.0 mm 1019.6 hPa, langsam steigend
21.10.2019 - 18:4613.4 °C77%1 km/h 7 km/h S-SW0.0 mm 0.0 mm 1019.5 hPa, gleichbleibend
21.10.2019 - 18:4513.5 °C77%1 km/h 5 km/h SW0.0 mm 0.0 mm 1019.5 hPa, gleichbleibend
21.10.2019 - 18:4413.5 °C77%1 km/h 1 km/h SW0.0 mm 0.0 mm 1019.5 hPa, gleichbleibend
21.10.2019 - 18:4313.6 °C77%1 km/h 5 km/h SW0.0 mm 0.0 mm 1019.5 hPa, gleichbleibend
21.10.2019 - 18:4213.6 °C77%1 km/h 5 km/h SW0.0 mm 0.0 mm 1019.5 hPa, langsam fallend
21.10.2019 - 18:4113.6 °C77%1 km/h 0 km/h S-SW0.0 mm 0.0 mm 1019.6 hPa, langsam steigend
21.10.2019 - 18:4013.7 °C77%1 km/h 8 km/h SW0.0 mm 0.0 mm 1019.5 hPa, gleichbleibend
21.10.2019 - 18:3913.7 °C77%1 km/h 5 km/h SW0.0 mm 0.0 mm 1019.5 hPa, gleichbleibend
21.10.2019 - 18:3813.7 °C77%1 km/h 0 km/h S-SW0.0 mm 0.0 mm 1019.5 hPa, gleichbleibend
21.10.2019 - 18:3713.7 °C77%1 km/h 10 km/h SW0.0 mm 0.0 mm 1019.5 hPa, langsam steigend